Track CARTOSAT 2A now! 10-day predictions CARTOSAT 2A is classified as:
1 32783U 08021A 24326.09618602 .00001656 00000-0 23235-3 0 9999 2 32783 97.8463 20.8502 0011886 168.1504 191.9989 14.78713791894193